Location: Unspecified
(0.0000°N, 0.0000°E)
Time: 05:53:32
(UTC+00:00)

Explorer 7 - Pass Details

Date: 10 October 2020
Orbit: 484 x 678 km, 50.3° (Epoch: 28 October)

Event Time Altitude Azimuth Distance (km) Brightness Sun altitude
Rises 05:12:28 0° 330° (NNW) 3,012 10.2 -8.6°
Reaches altitude 10° 05:14:52 10° 334° (NNW) 2,102 9.5 -8.0°
Maximum altitude 05:19:40 58° 53° (NE) 780 7.9 -6.8°
Drops below altitude 10° 05:24:22 10° 132° (SE) 2,065 10.7 -5.6°
Sets 05:26:42 0° 136° (SE) 2,955 11.5 -5.0°
